Flag for Chile Weather past 2 weeks in Viña del Mar, Chile

Now
52 °F

Scattered clouds.


Feels Like: 51 °F
Forecast: 49 / 57 °F
Wind: 3 mph from North

Location: Pudahuel

Current Time: Jul 23, 2014 at 2:28:27 PM

Latest Report: Jul 23, 2014 at 2:00 PM


Visibility: N/A

Pressure: 30.30 "Hg

Humidity: 54%

Dew point: 36 °F

Location of Viña del MarLocation

Historic Weather in Viña del Mar — Graph

°F

Viña del Mar temperature yesterday

Maximum temperature yesterday: 50 °F (at 12:00 AM)
Minimum temperature yesterday: 45 °F (at 11:00 PM)
Average temperature yesterday: 47 °F

Past Weeks' High & Low Weather Summary

 TemperatureHumidityPressure
High73 °F (Jul 18, 4:00 PM)93% (Jul 11, 5:00 AM)30.33 "Hg (Jul 11, 5:00 AM)
Low34 °F (Jul 13, 6:00 AM)18% (Jul 13, 4:00 PM)29.86 "Hg (Jul 10, 1:00 PM)
Average49 °F73%30.06 "Hg
* Reported Jul 8 1:00 PM — Jul 23 1:00 PM, Viña del Mar, Weather by CustomWeather, © 2014

Note: Actual official high and low records may vary slightly from our data, if they occured in-between our weather recording intervals... More about our weather records

Advertising

Viña del Mar weather history for previous 24 hours

 ConditionsComfort  
Time TempWeatherWind HumidityBarometerVisibility
1:00 PM
Jul 23
50 °FPassing clouds.5 mph58%30.30 "HgN/A
12:00 PM48 °FPassing clouds.3 mph62%30.30 "HgN/A
11:00 AM45 °FPartly sunny.3 mph71%30.33 "HgN/A
10:00 AM43 °FPartly sunny.6 mph76%30.30 "HgN/A
9:00 AM43 °FPartly sunny.5 mph76%30.27 "HgN/A
8:00 AM43 °FOvercast.2 mph81%30.27 "HgN/A
7:00 AM43 °FOvercast.5 mph81%30.24 "HgN/A
6:00 AM41 °FPassing clouds.3 mph81%30.21 "HgN/A
5:00 AM43 °FPassing clouds.3 mph81%30.21 "HgN/A
4:00 AM43 °FOvercast.7 mph76%30.18 "HgN/A
2:00 AM43 °FOvercast.7 mph81%30.18 "HgN/A
1:00 AM41 °FPartly cloudy.3 mph81%30.18 "HgN/A
12:00 AM45 °FPassing clouds.8 mph71%30.18 "HgN/A
11:00 PM
Jul 22
45 °FPassing clouds.5 mph66%30.18 "HgN/A
10:00 PM46 °FPassing clouds.3 mph76%30.18 "HgN/A
9:00 PM46 °FPartly cloudy.6 mph76%30.15 "HgN/A
8:00 PM46 °FPartly cloudy.7 mph76%30.15 "HgN/A
Weather by CustomWeather, © 2014

See weather overviewHow to use our weather pages